Regional Weather Roundup
Issued by NWS Newport/Morehead, NC

Current Version | Previous Version | Graphics & Text | Print | Product List | Glossary On
Versions: 1 2 3 4 5 6 7 8 9 10 11 12 13 14 15 16 17 18 19 20 21 22 23 24 25 26 27 28 29 30 31 32 33 34 35 36 37 38 39 40 41 42 43 44 45 46 47 48 49 50
000 ASUS42 KMHX 260414 RWRMHX WEATHER ROUNDUP FOR EASTERN NORTH CAROLINA NATIONAL WEATHER SERVICE NEWPORT/MOREHEAD CITY NC 1200 AM EDT FRI MAY 26 2017 NOTE: "FAIR" INDICATES FEW OR NO CLOUDS BELOW 12,000 FEET WITH NO SIGNIFICANT WEATHER AND/OR OBSTRUCTIONS TO VISIBILITY NCZ015>017-031-032-045>047-102-103-260500- NORTH COAST CITY SKY/WX TMP DP RH WIND PRES REMARKS EDENTON CLOUDY 70 58 65 SW13G18 29.70R ELIZABETH CITY CLOUDY 67 59 75 SW15 29.68R KITTY HAWK PTCLDY 66 58 77 SW10G16 29.68R MANTEO MOCLDY 65 60 83 W17 29.70S $$ NCZ045>047-081-094-103-104-260500- CENTRAL COAST CITY SKY/WX TMP DP RH WIND PRES REMARKS FRISCO PTCLDY 72 57 59 W16G29 29.74R $$ NCZ095-097-098-100-101-260500- SOUTHERN COAST CITY SKY/WX TMP DP RH WIND PRES REMARKS BEAUFORT CLEAR 72 58 61 W22G35 29.78R CEDAR ISLAND NOT AVBL JACKSONVILLE CLEAR 66 56 70 SW13 29.78R PINEY ISLAND CLEAR N/A N/A N/A SW16G22 29.76R WILMINGTON CLEAR 66 55 67 SW12 29.82R $$ NCZ011>013-027>030-043-044-078>080-089-090>093-098-260500- COASTAL PLAIN CITY SKY/WX TMP DP RH WIND PRES REMARKS AHOSKIE N/A 60 59 95 CALM 29.68R CLINTON CLEAR 65 55 72 SW6 29.78R ELIZABETHTOWN CLEAR 66 55 66 SW7 29.80R GOLDSBORO CLEAR 67 56 69 SW12 29.74R GREENVILLE MOCLDY 68 55 64 SW12G18 29.75R HAVELOCK CLEAR 68 54 60 SW16 29.78R KENANSVILLE CLEAR 64 55 72 SW5 29.78R KINSTON CLEAR 65 55 69 CALM 29.76R NEW BERN CLEAR 66 56 70 SW10 29.78R RICHLANDS CLEAR 63 57 81 SW9 29.79R ROCKY MOUNT PTCLDY 66 55 67 SW13 29.72R WASHINGTON CLOUDY 66 57 71 SW12 29.72R WHITEVILLE CLEAR 67 53 61 SW7 29.82R $$ AMZ130-135-150-152-154-156-158-170-250-252-270-ANZ085-086-088-633-658-670-260500- MARINE OBSERVATIONS STATION/POSITION TIME TEMP WIND PRES WAVE SWELL AIR SEA DIR/SP/G HT/PER HT/PER (UTC) (F) (DEG/KT/KT) (MB) (FT/S) (FT/S) CHESAPEAKE LIGHT NOT AVBL 64 E VA BEACH 0350 65 63 230/ 17/ 21 1004.2 7/ 8 5/ 8 DUCK 0348 68 62 230/ 16/ 21 1004.6 2 E DUCK 0400 63 N/A 2/ 8 OREGON INLET 0348 230/ 15/ 17 N/A 13E OREGON INLT 0348 65 N/A 6/ 9 5/ 9 HATTERAS CG 0348 71 74 240/ 19/ 25 1006.7 DIAMOND BUOY 0350 74 78 250/ 27/ 33 1006.6 9/ 9 5/ 9 CAPE LOOKOUT 0400 72 250/ 25/ 29 1008.1 BEAUFORT LAB 0348 72 71 250/ 11/ 21 1007.5 30 SE NEW RVR IN 0308 73 75 260/ 25/ 35 1008.2 30 SE NEW RVR IN 0343 75 N/A 9/ 9 2/11 27 SE WRIGHTSVLE 0308 74 75 240/ 21/ 29 1008.6 5 SE WRIGHTSVLE 0308 72 74 250/ 21/ 29 1008.6 225 S CAPE HAT 0350 76 77 250/ 21/ 27 1012.6 10/ 8 41 SE CHARLESTON 0350 74 75 260/ 17/ 23 1012.1 6/ 7 2/ 8 $$

USA.gov is the U.S. government's official web portal to all federal, state and local government web resources and services.